Location: Lachaise
(45.8833°N, 1.8500°E)
Time: 22:03:16
(UTC+00:00)

FALCON 9 DEB - Pass Details

Date: 07 June 2020
Orbit: 428 x 442 km, 53.0° (Epoch: 07 July)

Event Time Altitude Azimuth Distance (km) Brightness Sun altitude
Rises 02:11:17 0° 301° (WNW) 2,407 6.9 -14.4°
Reaches altitude 10° 02:13:25 10° 306° (NW) 1,540 5.9 -14.2°
Maximum altitude 02:16:50 59° 27° (NNE) 508 3.8 -13.8°
Drops below altitude 10° 02:20:16 10° 108° (ESE) 1,542 6.1 -13.5°
Sets 02:22:24 0° 112° (ESE) 2,411 7.1 -13.3°
